TimeCST,TemperatureF,Dew PointF,Humidity,Sea Level PressureIn,VisibilityMPH,Wind Direction,Wind SpeedMPH,Gust SpeedMPH,PrecipitationIn,Events,Conditions,WindDirDegrees,DateUTC
12:53 AM,53.1,50.0,89,30.20,7.0,Calm,Calm,-,N/A,,Mostly Cloudy,0,2012-11-23 06:53:00
1:53 AM,53.1,51.1,93,30.20,7.0,Calm,Calm,-,N/A,,Overcast,0,2012-11-23 07:53:00
2:53 AM,54.0,52.0,93,30.20,8.0,Calm,Calm,-,N/A,,Overcast,0,2012-11-23 08:53:00
3:53 AM,55.9,52.0,87,30.19,9.0,Calm,Calm,-,N/A,,Overcast,0,2012-11-23 09:53:00
4:53 AM,57.0,53.1,87,30.20,9.0,Calm,Calm,-,N/A,,Mostly Cloudy,0,2012-11-23 10:53:00
5:53 AM,55.4,53.6,94,30.21,6.0,Calm,Calm,-,N/A,,Overcast,0,2012-11-23 11:53:00
6:53 AM,55.0,53.1,93,30.23,5.0,Calm,Calm,-,N/A,,Partly Cloudy,0,2012-11-23 12:53:00
7:53 AM,59.0,55.0,87,30.25,6.0,Calm,Calm,-,N/A,,Scattered Clouds,0,2012-11-23 13:53:00
8:53 AM,64.9,55.9,73,30.26,10.0,Calm,Calm,-,N/A,,Mostly Cloudy,0,2012-11-23 14:53:00
9:53 AM,70.0,55.0,59,30.27,10.0,Calm,Calm,-,N/A,,Scattered Clouds,0,2012-11-23 15:53:00
10:53 AM,73.9,55.0,52,30.26,9.0,South,3.5,-,N/A,,Partly Cloudy,190,2012-11-23 16:53:00
11:53 AM,78.1,54.0,43,30.23,10.0,WNW,8.1,-,N/A,,Scattered Clouds,290,2012-11-23 17:53:00
12:53 PM,75.9,54.0,46,30.21,10.0,WNW,8.1,-,N/A,,Scattered Clouds,300,2012-11-23 18:53:00
1:53 PM,75.0,54.0,48,30.19,10.0,NNW,5.8,-,N/A,,Overcast,340,2012-11-23 19:53:00
2:53 PM,75.0,55.0,50,30.19,10.0,North,5.8,-,N/A,,Overcast,350,2012-11-23 20:53:00
3:53 PM,73.0,55.0,53,30.19,10.0,NNW,13.8,-,N/A,,Overcast,340,2012-11-23 21:53:00
4:53 PM,69.1,55.9,63,30.20,10.0,NNW,10.4,-,N/A,,Clear,340,2012-11-23 22:53:00
5:53 PM,66.2,57.2,73,30.22,10.0,NNW,6.9,-,N/A,,Overcast,340,2012-11-23 23:53:00
6:53 PM,64.9,57.0,75,30.25,10.0,North,15.0,-,N/A,,Overcast,360,2012-11-24 00:53:00
7:53 PM,63.0,57.0,81,30.25,10.0,North,10.4,-,N/A,,Overcast,360,2012-11-24 01:53:00
8:53 PM,62.1,55.0,78,30.27,9.0,North,11.5,-,N/A,,Overcast,10,2012-11-24 02:53:00
9:53 PM,61.0,54.0,78,30.27,10.0,North,9.2,-,N/A,,Partly Cloudy,10,2012-11-24 03:53:00
10:15 PM,60.8,53.6,77,30.27,10.0,North,9.2,-,N/A,,Mostly Cloudy,10,2012-11-24 04:15:00
10:35 PM,60.8,53.6,77,30.27,10.0,North,12.7,-,N/A,,Overcast,360,2012-11-24 04:35:00
10:53 PM,61.0,53.1,75,30.27,10.0,North,6.9,-,N/A,,Overcast,10,2012-11-24 04:53:00
11:53 PM,59.0,48.0,67,30.28,10.0,North,9.2,-,N/A,,Overcast,360,2012-11-24 05:53:00